Regional Weather Roundup
Issued by NWS New Orleans/Baton Rouge, LA

Home | Current Version | Previous Version | Text Only | Print | Product List | Glossary On
Versions: 1 2 3 4 5 6 7 8 9 10 11 12 13 14 15 16 17 18 19 20 21 22 23 24 25 26 27 28 29 30 31 32 33 34 35 36 37 38 39 40 41 42 43 44 45 46 47 48 49 50
683
ASUS44 KLIX 271505
RWRLIX
NEW ORLEANS REGIONAL WEATHER ROUNDUP
NATIONAL WEATHER SERVICE NEW ORLEANS LA
1000 AM CDT WED AUG 27 2014

NOTE: "FAIR" INDICATES FEW OR NO CLOUDS BELOW 12,000 FEET WITH NO
      SIGNIFICANT WEATHER AND/OR OBSTRUCTIONS TO VISIBILITY.
      SKY/WX - SKY CONDITION AND SIGNIFICANT WEATHER.
      TMP - AIR TEMPERATURE.     DP    - DEWPOINT TEMPERATURE.
      RH  - RELATIVE HUMIDITY.   PRES  - PRESSURE.
      HI  - HEAT INDEX.          WCI   - WIND CHILL INDEX.

*  THESE STATIONS ARE NOT NWS OR FAA STATIONS AND ARE NOT UNDER
   NWS QUALITY CONTROL.

LAZ038-040-048-061>063-065>067-069-271600-
SOUTHEAST LOUISIANA

CITY           SKY/WX    TMP DP  RH WIND       PRES   REMARKS
N.O. AUDUBON   NOT AVBL
N.O. INTL ARPT PTSUNNY   86  74  67 NE14      30.02R
N.O. LAKEFRONT PTSUNNY   85  74  69 NE9       30.03R
N.O. DOWNTOWN*   N/A     84  72  65 E5        30.02S
SLIDELL        MOSUNNY   87  72  60 N5        30.02R
BATON ROUGE    SUNNY     85  73  67 E10       30.03R
BOOTHVILLE     SUNNY     87  75  67 E13       30.01R HX  96
BELLE CHASSE   PTSUNNY   86  71  60 NE7       30.01R
BOGALUSA*        N/A     84  69  60 CALM      30.06R
GALLIANO*      NOT AVBL
NEW ROADS*       N/A     84  73  69 E6        30.02F
GONZALES*      CLOUDY    83  77  82 NE7       30.02S
HAMMOND*       SUNNY     86  68  54 E6        30.05R
HOUMA*         MOSUNNY   86  75  70 NE7       30.00R HX  95
PORT FOURCHON* MOSUNNY   86  75  70 E12G17    30.01R HX  95

$$

MSZ070-080>082-271600-
SOUTHERN MISSISSIPPI

CITY           SKY/WX    TMP DP  RH WIND       PRES   REMARKS
MCCOMB         SUNNY     85  69  58 VRB6      30.06R
GULFPORT       SUNNY     87  72  60 NE6       30.03R
BILOXI         SUNNY     86  72  62 E6        30.03R
PASCAGOULA     SUNNY     86  72  62 E5        30.03S

$$

COASTAL OBSERVATIONS
LAKE AND NEARSHORE STATIONS

STATION/POSITION TIME  TEMP    WIND        PRES    WAVE
                       AIR SEA DIR/SP/G            HT/PER
                 (UTC) (F)     (DEG/KT/KT) (MB)    (FT/S)
PASCAGOULA       1500   88      80/  9/ 11 1016.4
WAVELAND YACHT   1500   82      50/  3/  4 1016.2
GRAND ISLE       1500   86 84   90/  7/ 11 1016.4
SOUTHWEST PASS   1500   88 87   90/ 12/ 15 1016.0
NEW CANAL        1500   83 83   60/ 10/ 12 1016.9
SHELL BEACH      1500   82 80   50/  5/  7 1016.3

OFFSHORE STATIONS

STATION/POSITION TIME  TEMP    WIND        PRES    WAVE
                       AIR SEA DIR/SP/G            HT/PER
                 (UTC) (F)     (DEG/KT/KT) (MB)    (FT/S)
64 S DAUPHIN ISL 1443   82 86   90/ 19/ 23 1016.3

$$




USA.gov is the U.S. government's official web portal to all federal, state and local government web resources and services.